Regional Weather Roundup
Issued by NWS

Home | Current Version | Previous Version | Graphics & Text | Print | Product List | Glossary On
Versions: 1 2 3 4 5 6 7 8 9 10 11 12 13 14 15 16 17 18 19 20 21 22 23 24 25 26 27 28 29 30 31 32 33 34 35 36 37 38 39 40 41 42 43 44 45 46 47 48 49 50
000
ASUS43 KLSX 280859
RWRMO

WEATHER SUMMARY FOR MISSOURI
NATIONAL WEATHER SERVICE SPRINGFIELD MO
300 AM CST FRI NOV 28 2014

NOTE: "FAIR" INDICATES FEW OR NO CLOUDS BELOW 12,000 FEET WITH NO
       SIGNIFICANT WEATHER AND/OR OBSTRUCTIONS TO VISIBILITY.
       CURRENT SKY AND/OR WEATHER CONDITIONS ARE NOT AVAILABLE FOR
       CHILLICOTHE AND FARMINGTON.

MOZ001>031-035>038-043-044-053-054-281000-
...NORTHERN AND WESTERN MISSOURI...

CITY           SKY/WX    TMP DP  RH WIND       PRES   REMARKS
KANSAS CTY INT PTCLDY    33  23  66 S15       30.11F WCI  23
KANSAS C DTWN  CLEAR     36  22  56 S12G23    30.14F WCI  28
LEE`S SUMMIT   CLEAR     32  22  66 S14G23    30.15F WCI  22
ST JOSEPH      CLEAR     31  22  69 S12       30.13F WCI  22
CHILLICOTHE      N/A     29  23  78 SE7       30.21F WCI  22
KIRKSVILLE     CLEAR     21  18  88 SE12      30.23F WCI   9

$$
MOZ066>068-077>081-088>096-101>105-281000-
...SOUTHWEST MISSOURI...

CITY           SKY/WX    TMP DP  RH WIND       PRES   REMARKS
SPRINGFIELD    CLEAR     33  24  69 S14       30.24F WCI  23
JOPLIN         CLEAR     35  25  66 S12       30.23F WCI  27

$$
MOZ032>034-039>042-045>050-055>058-069>072-281000-
...CENTRAL MISSOURI...

CITY           SKY/WX    TMP DP  RH WIND       PRES   REMARKS
COLUMBIA       CLEAR     28  23  81 SE10      30.27F WCI  19
JEFFERSON CITY CLEAR     30  24  78 E8        30.30F WCI  22
ROLLA          CLEAR     29  21  72 SE12      30.27F WCI  19
SEDALIA        CLEAR     30  23  75 S12       30.22F WCI  20
OSAGE BEACH    CLEAR     30  21  69 S9        30.26F WCI  22

$$
MOZ051-052-059>065-281000-
...EAST CENTRAL MISSOURI...

CITY           SKY/WX    TMP DP  RH WIND       PRES   REMARKS
ST LOUIS INTL  MOCLDY    27  20  75 SE9       30.37F WCI  18
SPIRIT OF STL  MOCLDY    27  21  78 E7        30.35F WCI  19
ST CHARLES     MOCLDY    24  19  81 SE9       30.37F WCI  14

$$
MOZ072>076-082>087-097>100-106>115-281000-
...SOUTH CENTRAL AND SOUTHEAST MISSOURI...

CITY           SKY/WX    TMP DP  RH WIND       PRES   REMARKS
CAPE GIRARDEAU PTCLDY    27  25  92 SE3       30.42S
FARMINGTON     CLEAR     27  25  93 SE5       30.36S WCI  21
POPLAR BLUFF   CLEAR     27  24  89 NW3       30.39F
WEST PLAINS    CLEAR     30  22  72 CALM      30.32F

$$


USA.gov is the U.S. government's official web portal to all federal, state and local government web resources and services.